Weather History for MMPB - October, 2012

Change the Weather History Date:

Tuesday, October 9, 2012

  Actual Average Record
Temperature  
Mean Temperature 62 °F -  
Max Temperature 74 °F 69 °F 76 °F (2013)
Min Temperature 50 °F 51 °F 35 °F (2001)
Degree Days  
Heating Degree Days 3    
Growing Degree Days 12 (Base 50)    
Moisture  
Dew Point 52 °F    
Average Humidity 73    
Maximum Humidity 94    
Minimum Humidity 35    
Precipitation  
Precipitation 0.55 in - - ()
Sea Level Pressure  
Sea Level Pressure 30.22 in    
Wind  
Wind Speed 4 mph ()    
Max Wind Speed 14 mph    
Max Gust Speed -    
Visibility 7.5 miles    
Events Rain , Thunderstorm    
Averages and records for this station are not official NWS values.
T = Trace of Precipitation, MM = Missing Value Source: Averaged Metar Reports

Daily Weather History Graph

Daily Weather History Graph

Search for Another Location

Airport or City:

Trip Planner

Search our weather history database for the weather conditions in past years. The results will help you decide how hot, cold, wet, or windy it might be!

Date:

Astronomy

Oct. 09, 2012 Rise Set
Actual Time 7:26 AM CDT 7:14 PM CDT
Civil Twilight 7:04 AM CDT 7:36 PM CDT
Nautical Twilight 6:38 AM CDT 8:02 PM CDT
Astronomical Twilight 6:13 AM CDT 8:27 PM CDT
Moon 1:51 AM CDT (10/9) 2:59 PM CDT (10/9)
Length of Visible Light 12h 32m
Length of Day
11h 48m
Last Quarter, 36% of the Moon is Illuminated
Oct 9
Last Quarter
Oct 15
New
Oct 21
First Quarter
Oct 29
Full
Nov 6
Last Quarter

Hourly Weather History & Observations

Time (CDT) Temp. Dew Point Humidity Pressure Visibility Wind Dir Wind Speed Gust Speed Precip Events Conditions
12:50 AM 57 °F 53 °F 82% 29.92 in 3 mi Calm Calm - -   Partly Cloudy
3:50 AM 53 °F 51 °F 92% 29.95 in 3 mi Calm Calm - -  
6:40 AM 50.0 °F 46.4 °F 87% 30.36 in 10.0 mi NW 8.1 mph - N/A   Partly Cloudy
6:50 AM 51 °F 49 °F 92% 29.98 in 3 mi Calm Calm - -   Scattered Clouds
7:51 AM 50.0 °F 48.2 °F 94% 30.37 in 10.0 mi WNW 6.9 mph - N/A   Mostly Cloudy
8:51 AM 55.4 °F 50.0 °F 82% 30.39 in 10.0 mi NNW 10.4 mph - N/A   Overcast
9:50 AM 58 °F 53 °F 79% 30.03 in 12 mi West 2.2 mph - -   Mostly Cloudy
9:51 AM 60.8 °F 50.0 °F 68% 30.40 in 10.0 mi NNW 10.4 mph - N/A   Mostly Cloudy
10:50 AM 64.4 °F 51.8 °F 64% 30.40 in 10.0 mi NNW 13.8 mph - N/A   Mostly Cloudy
11:53 AM 69.8 °F 50.0 °F 49% 30.37 in 10.0 mi NNW 5.8 mph - N/A   Mostly Cloudy
12:42 PM 71.6 °F 51.8 °F 50% 30.35 in 10.0 mi Calm Calm - N/A   Mostly Cloudy
12:50 PM 72 °F 50 °F 35% 29.98 in 12 mi North 2.2 mph - -   Mostly Cloudy
1:43 PM 69.8 °F 50.0 °F 49% 30.32 in 10.0 mi SSW 4.6 mph - N/A   Mostly Cloudy
2:49 PM 75.2 °F 53.6 °F 47% 30.29 in 10.0 mi South 8.1 mph - N/A   Mostly Cloudy
3:41 PM 66.2 °F 51.8 °F 60% 30.27 in 10.0 mi SW 11.5 mph - N/A   Mostly Cloudy
3:50 PM 69 °F 56 °F 53% 29.81 in 12 mi South 2.2 mph - -   Partly Cloudy
4:44 PM 69.8 °F 55.4 °F 60% 30.26 in 10.0 mi SW 10.4 mph - N/A   Mostly Cloudy
5:26 PM 69.8 °F 51.8 °F 53% 30.26 in 8.0 mi WNW 3.5 mph - N/A Thunderstorm Thunderstorm
5:45 PM 71.6 °F 48.2 °F 43% 30.26 in 8.0 mi ENE 3.5 mph - N/A Thunderstorm Thunderstorm
6:08 PM 57.2 °F 51.8 °F 82% 30.30 in 0.0 mi East 3.5 mph - N/A Rain , Thunderstorm Heavy Thunderstorms and Rain
6:42 PM 57.2 °F 53.6 °F 88% 30.32 in 6.0 mi SSE 10.4 mph - N/A Rain , Thunderstorm Light Thunderstorms and Rain
6:50 PM 56 °F 52 °F 83% 29.81 in 3 mi East 2.2 mph - -   Partly Cloudy
7:49 PM 55.4 °F 53.6 °F 94% 30.36 in 5.0 mi West 10.4 mph - N/A Rain Light Rain
8:47 PM 57.2 °F 53.6 °F 88% 30.36 in 5.0 mi West 6.9 mph - N/A Rain Light Rain
9:48 PM 53.6 °F 51.8 °F 94% 30.36 in 6.0 mi North 4.6 mph - N/A   Scattered Clouds
9:59 PM 58 °F 54 °F 83% 29.86 in 3 mi Calm Calm - -   Partly Cloudy
10:40 PM 53.6 °F 51.8 °F 94% 30.39 in 6.0 mi Calm Calm - N/A   Scattered Clouds
11:40 PM 53.6 °F 51.8 °F 94% 30.38 in 6.0 mi NNW 3.5 mph - N/A   Mostly Cloudy